GW3467 Weather Reports


time (UTC)temp
F
wind
direction
speed
knots
gust
knots
rain 1hr
in
rain 24hr
in
rain mn
in
humidity
%
barometer
mb
20260510203206 63 246 2.6 6.1 0.00 0.00 0.00 49 1018.2
20260510202705 64 205 1.7 5.2 0.00 0.00 0.00 48 1018.1
20260510202200 65 281 2.6 5.2 0.00 0.00 0.00 44 1018.2
20260510201658 63 17 1.7 1.7 0.00 0.00 0.00 48 1018.1
20260510201155 63 5 3.5 7.0 0.00 0.00 0.00 48 1018.3
20260510200651 63 163 2.6 3.5 0.00 0.00 0.00 45 1018.3
20260510200149 63 235 4.3 7.8 0.00 0.00 0.00 45 1018.3
20260510195646 63 279 3.5 6.1 0.00 0.00 0.00 44 1018.5
20260510195143 65 70 1.7 2.6 0.00 0.00 0.00 42 1018.4
20260510194642 64 194 0.0 0.9 0.00 0.00 0.00 41 1018.4
20260510194138 63 266 4.3 7.0 0.00 0.00 0.00 46 1018.5
20260510193633 63 243 2.6 5.2 0.00 0.00 0.00 47 1018.5
20260510193129 64 237 2.6 7.0 0.00 0.00 0.00 51 1018.7
20260510192625 64 308 2.6 5.2 0.00 0.00 0.00 47 1018.4
20260510192120 62 118 1.7 3.5 0.00 0.00 0.00 46 1018.6
20260510191617 64 20 2.6 3.5 0.00 0.00 0.00 48 1018.5
20260510191113 64 193 0.9 1.7 0.00 0.00 0.00 43 1018.4
20260510190611 64 199 0.9 2.6 0.00 0.00 0.00 46 1018.3
20260510190108 63 165 0.0 3.5 0.00 0.00 0.00 59 1018.2
20260510185605 61 74 1.7 5.2 0.00 0.00 0.00 49 1018.6
20260510185102 63 126 1.7 5.2 0.00 0.00 0.00 49 1018.3
20260510184559 62 299 3.5 6.1 0.00 0.00 0.00 50 1018.3
20260510184055 62 349 2.6 8.7 0.00 0.00 0.00 51 1018.6
20260510183550 62 289 4.3 5.2 0.00 0.00 0.00 48 1018.6
20260510183046 63 247 2.6 3.5 0.00 0.00 0.00 51 1018.4
20260510182543 62 248 0.9 1.7 0.00 0.00 0.00 52 1018.2
20260510182033 62 269 3.5 5.2 0.00 0.00 0.00 50 1018.3
20260510181531 61 98 1.7 5.2 0.00 0.00 0.00 49 1018.5
20260510181026 61 188 0.0 3.5 0.00 0.00 0.00 54 1018.4
20260510180523 61 47 1.7 5.2 0.00 0.00 0.00 56 1018.0
20260510180021 62 273 4.3 5.2 0.00 0.00 0.00 55 1018.0
20260510175515 61 202 0.0 5.2 0.00 0.00 0.00 54 1017.9
20260510175012 61 167 1.7 5.2 0.00 0.00 0.00 58 1018.0
20260510174510 62 200 0.0 2.6 0.00 0.00 0.00 57 1018.0
20260510174007 61 347 2.6 3.5 0.00 0.00 0.00 60 1017.9
20260510173502 60 169 1.7 6.1 0.00 0.00 0.00 56 1018.2
20260510172959 60 181 0.9 5.2 0.00 0.00 0.00 61 1017.9
20260510172455 61 42 4.3 6.1 0.00 0.00 0.00 55 1018.0
20260510171951 60 327 6.1 12.2 0.00 0.00 0.00 58 1018.1
20260510171448 61 176 1.7 3.5 0.00 0.00 0.00 55 1018.3
20260510170945 61 235 3.5 7.0 0.00 0.00 0.00 57 1018.3
20260510170442 60 146 0.9 5.2 0.00 0.00 0.00 61 1018.3
20260510165938 61 188 0.9 5.2 0.00 0.00 0.00 56 1018.4
20260510165434 60 256 0.9 1.7 0.00 0.00 0.00 56 1018.4
20260510164931 60 45 0.9 6.1 0.00 0.00 0.00 57 1018.3
20260510164428 61 146 0.9 3.5 0.00 0.00 0.00 71 1018.3
20260510163929 60 250 2.6 7.8 0.00 0.00 0.00 59 1018.3
20260510163425 60 269 3.5 7.0 0.00 0.00 0.00 61 1018.3
20260510162920 61 200 0.9 2.6 0.00 0.00 0.00 66 1018.3
20260510162417 60 259 2.6 7.0 0.00 0.00 0.00 65 1018.1
20260510161913 60 222 0.9 6.1 0.00 0.00 0.00 64 1018.1
20260510161408 61 188 0.9 1.7 0.00 0.00 0.00 65 1018.0
20260510160905 59 225 0.9 1.7 0.00 0.00 0.00 66 1018.1
20260510160403 60 204 0.0 3.5 0.00 0.00 0.00 62 1018.1
20260510155856 60 117 1.7 6.1 0.00 0.00 0.00 67 1017.9
20260510155353 60 193 0.0 1.7 0.00 0.00 0.00 64 1017.9
20260510154849 59 262 0.9 2.6 0.00 0.00 0.00 64 1017.9
20260510154345 59 41 1.7 3.5 0.00 0.00 0.00 61 1017.6
20260510153840 59 4 2.6 3.5 0.00 0.00 0.00 63 1017.7
20260510153336 59 207 2.6 3.5 0.00 0.00 0.00 61 1017.6
20260510152833 58 11 3.5 5.2 0.00 0.00 0.00 60 1017.8
20260510152330 59 96 2.6 2.6 0.00 0.00 0.00 62 1017.5
20260510151826 59 171 0.0 3.5 0.00 0.00 0.00 59 1017.6
20260510151324 59 157 0.9 2.6 0.00 0.00 0.00 68 1017.5
20260510150820 58 196 0.0 1.7 0.00 0.00 0.00 64 1017.6
20260510150316 59 161 2.6 6.1 0.00 0.00 0.00 65 1017.5
20260510145812 58 272 1.7 1.7 0.00 0.00 0.00 63 1017.4
20260510145308 58 150 1.7 2.6 0.00 0.00 0.00 65 1017.2
20260510144805 57 191 0.9 5.2 0.00 0.00 0.00 69 1017.3
20260510144302 57 177 1.7 3.5 0.00 0.00 0.00 61 1017.1
20260510143802 57 151 0.9 3.5 0.00 0.00 0.00 67 1017.0
20260510143258 57 61 1.7 2.6 0.00 0.00 0.00 72 1017.2
20260510142754 55 333 2.6 6.1 0.00 0.00 0.00 73 1016.9
20260510142251 56 51 1.7 5.2 0.00 0.00 0.00 72 1016.8
20260510141749 57 273 4.3 6.1 0.00 0.00 0.00 69 1016.9
20260510141246 55 136 0.0 1.7 0.00 0.00 0.00 76 1016.6
20260510140742 54 181 0.0 3.5 0.00 0.00 0.00 76 1016.6
20260510140237 54 94 0.9 3.5 0.00 0.00 0.00 77 1016.2
20260510135732 55 91 1.7 7.0 0.00 0.00 0.00 78 1016.4
20260510135228 55 149 1.7 2.6 0.00 0.00 0.00 73 1016.6
20260510134726 53 180 0.0 3.5 0.00 0.00 0.00 76 1016.8
20260510134223 52 135 0.9 1.7 0.00 0.00 0.00 80 1016.5
20260510133718 52 48 1.7 3.5 0.00 0.00 0.00 80 1016.6
20260510133215 52 73 0.9 2.6 0.00 0.00 0.00 80 1016.3
20260510132711 51 206 0.9 0.9 0.00 0.00 0.00 82 1016.5
20260510132208 51 170 0.0 1.7 0.00 0.00 0.00 83 1016.4
20260510131705 51 187 0.0 1.7 0.00 0.00 0.00 81 1016.2
20260510131203 51 160 0.0 0.9 0.00 0.00 0.00 83 1016.3
20260510130653 51 150 0.0 0.9 0.00 0.00 0.00 83 1016.2
20260510130151 51 135 0.9 0.9 0.00 0.00 0.00 83 1016.3
20260510125647 50 168 0.0 0.9 0.00 0.00 0.00 83 1016.4
20260510125143 51 202 0.0 0.9 0.00 0.00 0.00 84 1016.3
20260510124641 50 166 0.0 0.9 0.00 0.00 0.00 83 1016.0
20260510124137 50 194 0.9 0.9 0.00 0.00 0.00 83 1015.8
20260510123632 50 191 0.0 0.0 0.00 0.00 0.00 85 1015.9
20260510123129 50 191 0.0 0.0 0.00 0.00 0.00 84 1015.8
20260510122625 50 191 0.0 0.0 0.00 0.00 0.00 86 1015.9
20260510122121 50 202 0.0 0.9 0.00 0.00 0.00 84 1015.7
20260510121618 50 208 0.0 0.0 0.00 0.00 0.00 86 1015.9
20260510121115 49 208 0.0 0.0 0.00 0.00 0.00 85 1015.6
20260510120613 49 207 0.0 0.0 0.00 0.00 0.00 85 1015.6
20260510120108 50 187 0.0 0.9 0.00 0.00 0.00 86 1015.2
20260510115605 49 185 0.9 0.9 0.00 0.00 0.00 85 1015.0
20260510115103 49 199 0.0 0.0 0.00 0.00 0.00 84 1015.2
20260510114558 49 199 0.0 0.0 0.00 0.00 0.00 84 1014.9
20260510114054 49 200 0.0 0.9 0.00 0.00 0.00 82 1015.2
20260510113549 49 201 0.0 0.9 0.00 0.00 0.00 82 1015.2
20260510113048 49 149 0.0 0.0 0.00 0.00 0.00 83 1014.5
20260510112544 49 149 0.0 0.0 0.00 0.00 0.00 85 1014.5
20260510112040 49 149 0.0 0.0 0.00 0.00 0.00 84 1014.5
20260510111537 49 149 0.0 0.0 0.00 0.00 0.00 86 1014.3
20260510111033 49 149 0.0 0.0 0.00 0.00 0.00 83 1014.4
20260510110529 49 149 0.0 0.0 0.00 0.00 0.00 78 1014.4
20260510110026 49 210 0.0 0.0 0.00 0.00 0.00 80 1014.4
20260510105521 50 197 0.0 0.9 0.00 0.00 0.00 80 1014.3
20260510105016 50 109 0.9 1.7 0.00 0.00 0.00 79 1013.6
20260510104513 50 207 0.0 0.9 0.00 0.00 0.00 75 1014.1
20260510104009 50 207 0.0 0.9 0.00 0.00 0.00 75 1014.0
20260510103507 50 223 1.7 2.6 0.00 0.00 0.00 74 1014.1
20260510103003 50 180 0.0 1.7 0.00 0.00 0.00 76 1013.9
20260510102458 50 182 0.0 0.0 0.00 0.00 0.00 78 1013.8
20260510101955 50 184 0.0 1.7 0.00 0.00 0.00 74 1013.6
20260510101453 50 205 0.0 0.9 0.00 0.00 0.00 76 1013.6
20260510100951 50 198 0.0 0.9 0.00 0.00 0.00 75 1013.2
20260510100447 51 117 1.7 1.7 0.00 0.00 0.00 75 1012.8
20260510095943 51 66 1.7 3.5 0.00 0.00 0.00 75 1012.8
20260510095439 51 191 0.0 6.1 0.00 0.00 0.00 78 1012.8
20260510094938 51 150 0.9 1.7 0.00 0.00 0.00 78 1012.9
20260510094433 51 272 3.5 3.5 0.00 0.00 0.00 79 1012.6
20260510093929 51 202 0.0 0.9 0.00 0.00 0.00 81 1012.8
20260510093424 51 159 0.9 1.7 0.00 0.00 0.00 81 1012.5
20260510092921 52 244 0.9 2.6 0.00 0.00 0.00 78 1012.5
20260510092418 51 101 0.9 2.6 0.00 0.00 0.00 80 1012.5
20260510091913 52 348 3.5 3.5 0.00 0.00 0.00 81 1012.5
20260510091410 52 123 0.9 2.6 0.00 0.00 0.00 85 1012.4
20260510090906 52 13 3.5 5.2 0.00 0.00 0.00 84 1012.3
20260510090403 52 236 2.6 2.6 0.00 0.00 0.00 85 1012.1
20260510085858 53 282 1.7 6.1 0.00 0.00 0.00 86 1011.9
20260510085353 53 4 2.6 5.2 0.00 0.00 0.00 88 1012.1
20260510084844 53 6 0.9 7.0 0.00 0.00 0.00 87 1011.9
20260510084342 54 198 0.9 5.2 0.00 0.00 0.00 87 1011.9
20260510083838 54 299 5.2 7.8 0.00 0.00 0.00 87 1011.8
20260510083335 54 177 1.7 5.2 0.00 0.00 0.00 86 1011.6
20260510082830 54 0 3.5 5.2 0.00 0.00 0.00 85 1011.6
20260510082328 55 332 3.5 3.5 0.00 0.00 0.00 84 1011.6
20260510081826 55 281 4.3 5.2 0.00 0.00 0.00 83 1011.4
20260510081323 55 303 1.7 8.7 0.00 0.00 0.00 82 1011.5
20260510080819 56 242 2.6 6.1 0.00 0.00 0.00 84 1011.3
20260510080314 56 62 1.7 2.6 0.00 0.00 0.00 83 1011.4
20260510075811 56 277 2.6 3.5 0.00 0.00 0.00 82 1011.3
20260510075308 57 304 4.3 6.1 0.00 0.00 0.00 82 1011.2
20260510074805 57 269 2.6 3.5 0.00 0.00 0.00 83 1011.2
20260510074302 58 350 3.5 5.2 0.00 0.00 0.00 82 1011.1
20260510073758 58 274 4.3 7.0 0.00 0.00 0.00 83 1011.1
20260510073254 58 31 1.7 6.1 0.00 0.00 0.00 83 1011.1
20260510072750 59 230 1.7 7.0 0.00 0.00 0.00 83 1011.1
20260510072247 58 300 3.5 6.1 0.00 0.00 0.00 83 1011.2
20260510071743 58 197 0.0 0.9 0.00 0.00 0.00 84 1011.0
20260510071240 58 220 0.0 1.7 0.00 0.00 0.00 83 1011.0
20260510070738 59 212 0.0 2.6 0.00 0.00 0.00 83 1010.9
20260510070235 59 215 0.9 1.7 0.00 0.00 0.00 83 1010.9
20260510065729 59 210 0.9 2.6 0.00 0.00 0.00 82 1010.8
20260510065226 59 247 3.5 3.5 0.00 0.00 0.00 82 1011.0
20260510064723 59 185 0.9 3.5 0.00 0.00 0.00 81 1011.0
20260510064221 59 208 1.7 2.6 0.00 0.00 0.00 81 1010.9
20260510063717 59 207 1.7 3.5 0.00 0.00 0.00 81 1010.8
20260510063213 60 209 1.7 2.6 0.00 0.00 0.00 80 1011.1
20260510062710 60 231 3.5 5.2 0.00 0.00 0.00 80 1011.0
20260510062206 60 207 3.5 6.1 0.00 0.00 0.00 79 1011.0
20260510061701 60 222 0.9 3.5 0.00 0.00 0.00 80 1010.8
20260510061158 60 263 3.5 5.2 0.00 0.00 0.00 79 1010.9
20260510060655 60 182 0.0 3.5 0.00 0.00 0.00 79 1010.9
20260510060151 60 225 1.7 5.2 0.00 0.00 0.00 79 1010.8
20260510055647 60 214 2.6 2.6 0.00 0.00 0.00 79 1010.8
20260510055145 60 225 1.7 5.2 0.00 0.00 0.00 79 1010.6
20260510054641 59 189 1.7 1.7 0.00 0.00 0.00 82 1010.6
20260510054137 58 180 0.9 0.9 0.00 0.00 0.00 82 1010.5
20260510053636 58 169 0.9 0.9 0.00 0.00 0.00 83 1010.8
20260510053133 58 165 0.9 0.9 0.00 0.00 0.00 83 1010.6
20260510052629 57 184 0.9 1.7 0.00 0.00 0.00 84 1010.6
20260510052120 57 185 0.0 0.9 0.00 0.00 0.00 85 1010.6
20260510051615 57 185 0.9 0.9 0.00 0.00 0.00 85 1010.5
20260510051113 58 184 0.9 1.7 0.00 0.00 0.00 84 1010.5
20260510050610 59 188 0.9 0.9 0.00 0.00 0.00 80 1010.8
20260510050107 59 190 0.0 0.9 0.00 0.00 0.00 80 1010.5
20260510045604 59 191 0.9 0.9 0.00 0.00 0.00 80 1010.4
20260510045100 59 210 0.0 0.0 0.00 0.00 0.00 80 1010.8
20260510044556 60 229 0.0 1.7 0.00 0.00 0.00 79 1010.6
20260510044054 60 154 0.0 0.9 0.00 0.00 0.00 78 1010.5
20260510043549 60 266 2.6 2.6 0.00 0.00 0.00 79 1010.9
20260510043045 60 303 2.6 5.2 0.00 0.00 0.00 79 1011.1
20260510042545 61 295 3.5 7.0 0.00 0.00 0.00 78 1011.2
20260510042040 62 265 2.6 3.5 0.00 0.00 0.00 75 1010.4
20260510041537 62 202 1.7 2.6 0.00 0.00 0.00 75 1010.1
20260510041035 62 228 1.7 1.7 0.00 0.00 0.00 75 1010.0
20260510040531 62 203 0.9 3.5 0.00 0.00 0.00 75 1009.9
20260510040027 62 212 1.7 2.6 0.00 0.06 0.06 75 1009.9
20260510035524 62 216 0.9 3.5 0.00 0.06 0.06 75 1009.9
20260510035023 62 232 1.7 2.6 0.00 0.06 0.06 75 1009.9
20260510034522 61 200 0.9 1.7 0.00 0.06 0.06 76 1009.8
20260510034018 62 236 1.7 2.6 0.00 0.06 0.06 75 1009.9
20260510033514 62 197 0.9 1.7 0.00 0.06 0.06 75 1009.8
20260510033012 62 223 2.6 2.6 0.00 0.06 0.06 74 1009.6
20260510032508 62 192 0.0 1.7 0.00 0.06 0.06 74 1009.6
20260510032003 62 213 0.9 3.5 0.00 0.06 0.06 74 1009.8
20260510031458 62 194 2.6 7.0 0.00 0.06 0.06 73 1009.7
20260510030955 62 210 3.5 6.1 0.00 0.06 0.06 73 1009.6
20260510030450 62 180 1.7 3.5 0.00 0.06 0.06 73 1009.6
20260510025947 63 247 1.7 3.5 0.00 0.06 0.06 73 1009.8
20260510025445 62 191 3.5 3.5 0.00 0.06 0.06 73 1009.7
20260510024942 63 202 1.7 2.6 0.00 0.06 0.06 72 1009.5
20260510024438 62 191 0.0 1.7 0.00 0.06 0.06 73 1009.7
20260510023934 62 201 0.9 2.6 0.00 0.06 0.06 73 1009.6
20260510023430 62 187 2.6 2.6 0.00 0.06 0.06 73 1009.5
20260510022928 62 197 0.0 0.9 0.00 0.06 0.06 74 1009.5
20260510022427 62 203 0.0 1.7 0.00 0.06 0.06 73 1009.3
20260510021926 63 228 0.9 1.7 0.00 0.06 0.06 72 1009.1
20260510021424 63 219 0.9 1.7 0.00 0.06 0.06 71 1009.2
20260510020920 64 241 0.9 3.5 0.00 0.06 0.06 70 1009.2
20260510020415 64 201 0.0 1.7 0.00 0.06 0.06 69 1009.1
20260510015911 64 173 1.7 2.6 0.00 0.06 0.06 69 1009.0
20260510015407 64 189 0.9 6.1 0.00 0.06 0.06 68 1008.9
20260510014902 64 194 0.0 1.7 0.00 0.06 0.06 69 1008.9
20260510014401 65 189 1.7 2.6 0.00 0.06 0.06 68 1008.9
20260510013856 65 171 0.0 1.7 0.00 0.06 0.06 68 1008.9
20260510013352 65 193 0.9 2.6 0.00 0.06 0.06 66 1008.9
20260510012847 65 175 0.0 1.7 0.00 0.06 0.06 66 1008.7
20260510012342 66 220 1.7 3.5 0.00 0.06 0.06 65 1008.6
20260510011837 66 218 1.7 6.1 0.00 0.06 0.06 64 1008.6
20260510011332 66 232 2.6 5.2 0.00 0.06 0.06 64 1008.5
20260510010829 66 223 2.6 2.6 0.00 0.06 0.06 64 1008.1
20260510010326 66 199 1.7 3.5 0.00 0.06 0.06 64 1008.4
20260510005823 66 200 1.7 6.1 0.00 0.06 0.06 63 1008.2
20260510005319 66 249 3.5 6.1 0.00 0.06 0.06 62 1008.2
20260510004817 66 221 2.6 3.5 0.00 0.06 0.06 63 1008.0
20260510004314 66 217 6.1 7.8 0.00 0.06 0.06 62 1007.9
20260510003812 66 293 3.5 5.2 0.00 0.06 0.06 62 1008.0
20260510003309 66 200 3.5 9.6 0.00 0.06 0.06 61 1007.9
20260510002807 66 202 2.6 5.2 0.00 0.06 0.06 62 1007.9
20260510002307 66 220 1.7 3.5 0.00 0.06 0.06 63 1008.0
20260510001801 66 207 3.5 6.1 0.00 0.06 0.06 62 1007.8
20260510001300 67 245 1.7 3.5 0.00 0.06 0.06 62 1007.9
20260510000755 67 201 3.5 6.1 0.00 0.06 0.06 62 1007.9
20260510000253 67 173 3.5 13.0 0.00 0.06 0.06 61 1007.8
20260509235750 67 225 1.7 6.1 0.00 0.06 0.06 63 1007.5
20260509235246 67 203 1.7 3.5 0.00 0.06 0.06 64 1007.6
20260509234742 67 190 4.3 5.2 0.00 0.06 0.06 63 1007.8
20260509234239 67 171 1.7 7.0 0.00 0.06 0.06 64 1007.3
20260509233737 67 218 4.3 6.1 0.00 0.06 0.06 64 1007.8
20260509233234 68 242 1.7 5.2 0.00 0.06 0.06 63 1007.5
20260509232730 67 223 6.1 7.8 0.00 0.06 0.06 64 1007.4
20260509232227 67 221 2.6 3.5 0.00 0.06 0.06 65 1007.4
20260509231724 67 223 2.6 6.1 0.00 0.06 0.06 66 1007.6
20260509231221 68 200 2.6 3.5 0.00 0.06 0.06 64 1007.4
20260509230719 68 243 4.3 7.8 0.00 0.06 0.06 64 1007.3
20260509230215 69 186 5.2 6.1 0.00 0.06 0.06 63 1007.3
20260509225711 69 193 7.0 11.3 0.00 0.06 0.06 61 1007.5
20260509225207 69 115 0.9 6.1 0.00 0.06 0.06 60 1007.3
20260509224702 69 222 3.5 7.0 0.00 0.06 0.06 61 1007.3
20260509224200 70 207 3.5 6.1 0.00 0.06 0.06 62 1007.4
20260509223656 70 184 2.6 6.1 0.00 0.06 0.06 62 1007.2
20260509223154 70 229 3.5 7.8 0.00 0.06 0.06 61 1007.1
20260509222651 70 185 0.9 6.1 0.00 0.06 0.06 63 1007.1
20260509222146 70 209 4.3 9.6 0.00 0.06 0.06 61 1007.3
20260509221642 70 202 2.6 7.8 0.00 0.06 0.06 61 1007.2
20260509221138 70 179 3.5 6.1 0.00 0.06 0.06 61 1007.3
20260509220634 70 196 1.7 3.5 0.00 0.06 0.06 61 1007.2
20260509220130 70 235 1.7 8.7 0.00 0.06 0.06 61 1007.4
20260509215627 70 203 1.7 8.7 0.00 0.06 0.06 62 1007.2
20260509215123 69 208 2.6 11.3 0.00 0.06 0.06 60 1007.5
20260509214621 70 182 5.2 7.8 0.00 0.06 0.06 60 1007.3
20260509214117 70 208 2.6 11.3 0.00 0.06 0.06 60 1007.4
20260509213613 69 228 2.6 9.6 0.00 0.06 0.06 59 1007.3
20260509213110 69 216 6.1 14.8 0.00 0.06 0.06 60 1007.3
20260509212607 69 146 6.1 9.6 0.00 0.06 0.06 61 1007.2
20260509212104 70 215 3.5 6.1 0.00 0.06 0.06 60 1007.4
20260509211600 70 204 5.2 11.3 0.00 0.06 0.06 60 1007.5
20260509211057 69 209 5.2 7.8 0.00 0.06 0.06 61 1007.5
20260509210553 69 199 3.5 9.6 0.00 0.06 0.06 62 1007.6
20260509210050 69 187 8.7 14.8 0.00 0.06 0.06 62 1007.6
20260509205544 69 190 6.1 11.3 0.00 0.06 0.06 62 1007.8
20260509205040 69 184 3.5 6.1 0.00 0.06 0.06 64 1007.5
20260509204536 69 213 2.6 5.2 0.00 0.06 0.06 64 1007.8
20260509204032 69 143 1.7 7.8 0.00 0.06 0.06 60 1007.6